This is the latest recevied weather packets stored in our database for station/object KD5BIG-13. If no packets are shown the sender has not sent any weather packets the latest 10 day(s).
| Time | Temp. | Humidity | Pressure | Rain* | Wind** | Luminosity | Snow |
|---|---|---|---|---|---|---|---|
| 1778104345 | 25° C | 90% | 1013.5 hPa | - | - | 27 W/m² | - |
| 1778104041 | 25° C | 90% | 1013.6 hPa | - | - | 30 W/m² | - |
| 1778103739 | 25° C | 91% | 1013.7 hPa | - | - | 11 W/m² | - |
| 1778103437 | 25° C | 92% | 1013.7 hPa | - | - | 6 W/m² | - |
| 1778103134 | 25° C | 93% | 1012.8 hPa | - | - | 45 W/m² | - |
| 1778102831 | 25° C | 93% | 1013.2 hPa | - | - | 44 W/m² | - |
| 1778102526 | 25° C | 94% | 1012.8 hPa | - | - | 44 W/m² | - |
| 1778102222 | 24.44° C | 94% | 1012.7 hPa | - | - | 101 W/m² | - |
| 1778101918 | 24.44° C | 94% | 1013 hPa | - | - | 66 W/m² | - |
| 1778101615 | 24.44° C | 93% | 1013.6 hPa | - | - | 22 W/m² | - |
| 1778101312 | 25° C | 93% | 1013.8 hPa | - | - | 19 W/m² | - |
| 1778101010 | 25° C | 93% | 1013.7 hPa | - | - | 16 W/m² | - |
| 1778100704 | 24.44° C | 93% | 1014.1 hPa | - | - | 18 W/m² | - |
| 1778100403 | 25° C | 93% | 1013.7 hPa | - | - | 21 W/m² | - |
| 1778100099 | 25° C | 92% | 1013.8 hPa | - | - | 15 W/m² | - |
| 1778099797 | 25° C | 92% | 1014.4 hPa | - | - | 17 W/m² | - |
| 1778099493 | 25° C | 92% | 1013.6 hPa | - | - | 25 W/m² | - |
| 1778099192 | 25° C | 92% | 1014 hPa | - | - | 21 W/m² | - |
| 1778098888 | 25.56° C | 91% | 1014.6 hPa | - | - | 12 W/m² | - |
| 1778098585 | 25.56° C | 91% | 1014.4 hPa | - | - | 15 W/m² | - |
| 1778098281 | 25.56° C | 90% | 1014.2 hPa | - | - | 25 W/m² | - |
| 1778097978 | 25.56° C | 89% | 1014.3 hPa | - | - | 29 W/m² | - |
| 1778097675 | 26.11° C | 88% | 1014.4 hPa | - | - | 43 W/m² | - |
| 1778097371 | 26.11° C | 87% | 1014.8 hPa | - | - | 62 W/m² | - |
| 1778097068 | 26.11° C | 88% | 1014.5 hPa | - | - | 58 W/m² | - |
* Rain since midnight (hover to see other rain measurements)
** Current wind speed in m/s (hover to see current wind gust speed)